Météo par heure à Al Jubayl

Ce jour, 29 Octobre, Jeudi

Heure Température Précipitation Vent Pression Humidité
00:00 +21°C° 0 mm 1 m/s 760 mmHg 77%
01:00 +21°C° 0 mm 2 m/s 760 mmHg 71%
02:00 +21°C° 0 mm 2 m/s 760 mmHg 64%
03:00 +22°C° 0 mm 3 m/s 760 mmHg 60%
04:00 +21°C° 0 mm 3 m/s 760 mmHg 58%
05:00 +21°C° 0 mm 3 m/s 760 mmHg 56%
06:00 +21°C° 0 mm 4 m/s 761 mmHg 53%
07:00 +25°C° 0 mm 4 m/s 761 mmHg 46%
08:00 +27°C° 0 mm 4 m/s 761 mmHg 39%
09:00 +30°C° 0 mm 3 m/s 761 mmHg 32%
10:00 +32°C° 0 mm 4 m/s 761 mmHg 29%
11:00 +34°C° 0 mm 4 m/s 761 mmHg 26%
12:00 +35°C° 0 mm 4 m/s 760 mmHg 24%
13:00 +35°C° 0 mm 4 m/s 760 mmHg 25%
14:00 +34°C° 0 mm 4 m/s 760 mmHg 27%
15:00 +34°C° 0 mm 4 m/s 759 mmHg 29%
16:00 +32°C° 0 mm 4 m/s 760 mmHg 40%
17:00 +29°C° 0 mm 4 m/s 760 mmHg 51%
18:00 +27°C° 0 mm 4 m/s 760 mmHg 61%
19:00 +26°C° 0 mm 3 m/s 761 mmHg 66%
20:00 +25°C° 0 mm 3 m/s 761 mmHg 70%
21:00 +25°C° 0 mm 2 m/s 761 mmHg 74%
22:00 +23°C° 0 mm 2 m/s 761 mmHg 76%
23:00 +22°C° 0 mm 1 m/s 761 mmHg 78%

Demain, 30 Octobre, Vendredi

Heure Température Précipitation Vent Pression Humidité
00:00 +21°C° 0 mm 1 m/s 761 mmHg 80%
01:00 +22°C° 0 mm 1 m/s 760 mmHg 77%
02:00 +21°C° 0 mm 2 m/s 760 mmHg 75%
03:00 +23°C° 0 mm 2 m/s 760 mmHg 72%
04:00 +22°C° 0 mm 3 m/s 760 mmHg 71%
05:00 +21°C° 0 mm 3 m/s 761 mmHg 70%
06:00 +21°C° 0 mm 4 m/s 761 mmHg 69%
07:00 +25°C° 0 mm 4 m/s 761 mmHg 59%
08:00 +27°C° 0 mm 3 m/s 761 mmHg 49%
09:00 +29°C° 0 mm 3 m/s 761 mmHg 39%
10:00 +31°C° 0 mm 3 m/s 761 mmHg 33%
11:00 +33°C° 0 mm 3 m/s 761 mmHg 27%
12:00 +35°C° 0 mm 3 m/s 761 mmHg 21%
13:00 +35°C° 0 mm 3 m/s 760 mmHg 22%
14:00 +35°C° 0 mm 4 m/s 760 mmHg 23%
15:00 +34°C° 0 mm 4 m/s 759 mmHg 24%
16:00 +32°C° 0 mm 4 m/s 760 mmHg 35%
17:00 +29°C° 0 mm 4 m/s 760 mmHg 46%
18:00 +26°C° 0 mm 4 m/s 760 mmHg 57%
19:00 +25°C° 0 mm 3 m/s 760 mmHg 63%
20:00 +24°C° 0 mm 2 m/s 761 mmHg 70%
21:00 +23°C° 0 mm 2 m/s 761 mmHg 76%
22:00 +22°C° 0 mm 1 m/s 761 mmHg 76%
23:00 +22°C° 0 mm 1 m/s 760 mmHg 76%

Après-demain, 31 Octobre, Samedi

Heure Température Précipitation Vent Pression Humidité
00:00 +21°C° 0 mm 1 m/s 760 mmHg 76%
01:00 +22°C° 0 mm 1 m/s 760 mmHg 70%
02:00 +21°C° 0 mm 2 m/s 760 mmHg 63%
03:00 +22°C° 0 mm 3 m/s 760 mmHg 57%
04:00 +21°C° 0 mm 3 m/s 760 mmHg 54%
05:00 +21°C° 0 mm 3 m/s 760 mmHg 51%
06:00 +21°C° 0 mm 3 m/s 760 mmHg 49%
07:00 +25°C° 0 mm 3 m/s 761 mmHg 41%
08:00 +27°C° 0 mm 3 m/s 761 mmHg 34%
09:00 +30°C° 0 mm 3 m/s 761 mmHg 26%
10:00 +33°C° 0 mm 3 m/s 761 mmHg 22%
11:00 +34°C° 0 mm 3 m/s 761 mmHg 18%
12:00 +36°C° 0 mm 3 m/s 761 mmHg 14%
13:00 +35°C° 0 mm 3 m/s 760 mmHg 17%
14:00 +35°C° 0 mm 4 m/s 760 mmHg 20%
15:00 +34°C° 0 mm 4 m/s 759 mmHg 23%
16:00 +32°C° 0 mm 4 m/s 760 mmHg 34%
17:00 +29°C° 0 mm 4 m/s 760 mmHg 45%
18:00 +27°C° 0 mm 4 m/s 760 mmHg 56%
19:00 +26°C° 0 mm 4 m/s 760 mmHg 60%
20:00 +25°C° 0 mm 3 m/s 761 mmHg 63%
21:00 +24°C° 0 mm 3 m/s 761 mmHg 67%
22:00 +24°C° 0 mm 2 m/s 761 mmHg 69%
23:00 +23°C° 0 mm 2 m/s 761 mmHg 70%

1 Novembre, Dimanche

Heure Température Précipitation Vent Pression Humidité
00:00 +23°C° 0 mm 2 m/s 761 mmHg 72%
01:00 +21°C° 0 mm 2 m/s 761 mmHg 71%
02:00 +21°C° 0 mm 2 m/s 760 mmHg 71%
03:00 +21°C° 0 mm 2 m/s 760 mmHg 70%
04:00 +21°C° 0 mm 2 m/s 761 mmHg 68%
05:00 +20°C° 0 mm 2 m/s 761 mmHg 65%
06:00 +20°C° 0 mm 2 m/s 761 mmHg 63%
07:00 +24°C° 0 mm 2 m/s 762 mmHg 52%
08:00 +27°C° 0 mm 2 m/s 762 mmHg 42%
09:00 +29°C° 0 mm 2 m/s 762 mmHg 31%
10:00 +31°C° 0 mm 2 m/s 762 mmHg 26%
11:00 +34°C° 0 mm 2 m/s 762 mmHg 21%
12:00 +35°C° 0 mm 2 m/s 761 mmHg 16%
13:00 +35°C° 0 mm 3 m/s 761 mmHg 18%
14:00 +35°C° 0 mm 3 m/s 761 mmHg 21%
15:00 +34°C° 0 mm 4 m/s 761 mmHg 23%
16:00 +32°C° 0 mm 4 m/s 761 mmHg 33%
17:00 +29°C° 0 mm 4 m/s 761 mmHg 44%
18:00 +26°C° 0 mm 3 m/s 761 mmHg 54%
19:00 +26°C° 0 mm 3 m/s 761 mmHg 58%
20:00 +25°C° 0 mm 3 m/s 762 mmHg 62%
21:00 +24°C° 0 mm 3 m/s 762 mmHg 65%
22:00 +24°C° 0 mm 2 m/s 762 mmHg 68%
23:00 +23°C° 0 mm 2 m/s 761 mmHg 71%

2 Novembre, Lundi

Heure Température Précipitation Vent Pression Humidité
00:00 +23°C° 0 mm 2 m/s 761 mmHg 73%
01:00 +21°C° 0 mm 2 m/s 761 mmHg 70%
02:00 +21°C° 0 mm 2 m/s 761 mmHg 68%
03:00 +21°C° 0 mm 2 m/s 761 mmHg 65%
04:00 +21°C° 0 mm 2 m/s 762 mmHg 63%
05:00 +21°C° 0 mm 2 m/s 762 mmHg 62%
06:00 +20°C° 0 mm 3 m/s 762 mmHg 61%
07:00 +24°C° 0 mm 2 m/s 762 mmHg 51%
08:00 +26°C° 0 mm 2 m/s 763 mmHg 42%
09:00 +29°C° 0 mm 2 m/s 763 mmHg 33%
10:00 +31°C° 0 mm 2 m/s 763 mmHg 28%
11:00 +32°C° 0 mm 2 m/s 762 mmHg 23%
12:00 +34°C° 0 mm 1 m/s 762 mmHg 18%
13:00 +35°C° 0 mm 2 m/s 762 mmHg 19%
14:00 +35°C° 0 mm 3 m/s 762 mmHg 20%
15:00 +34°C° 0 mm 4 m/s 761 mmHg 22%
16:00 +32°C° 0 mm 4 m/s 762 mmHg 32%
17:00 +28°C° 0 mm 3 m/s 762 mmHg 42%
18:00 +26°C° 0 mm 3 m/s 762 mmHg 52%
19:00 +25°C° 0 mm 3 m/s 762 mmHg 55%
20:00 +25°C° 0 mm 3 m/s 762 mmHg 57%
21:00 +24°C° 0 mm 2 m/s 762 mmHg 59%
22:00 +23°C° 0 mm 2 m/s 762 mmHg 61%
23:00 +23°C° 0 mm 2 m/s 762 mmHg 62%

3 Novembre, Mardi

Heure Température Précipitation Vent Pression Humidité
00:00 +22°C° 0 mm 1 m/s 762 mmHg 63%
01:00 +21°C° 0 mm 2 m/s 762 mmHg 60%
02:00 +21°C° 0 mm 2 m/s 762 mmHg 57%
03:00 +21°C° 0 mm 2 m/s 761 mmHg 54%
04:00 +21°C° 0 mm 2 m/s 762 mmHg 52%
05:00 +20°C° 0 mm 3 m/s 762 mmHg 51%
06:00 +20°C° 0 mm 3 m/s 762 mmHg 50%
07:00 +24°C° 0 mm 3 m/s 762 mmHg 42%
08:00 +27°C° 0 mm 3 m/s 763 mmHg 35%
09:00 +29°C° 0 mm 3 m/s 763 mmHg 28%
10:00 +31°C° 0 mm 3 m/s 763 mmHg 24%
11:00 +34°C° 0 mm 3 m/s 762 mmHg 20%
12:00 +36°C° 0 mm 3 m/s 762 mmHg 15%
13:00 +35°C° 0 mm 3 m/s 762 mmHg 18%
14:00 +35°C° 0 mm 4 m/s 761 mmHg 20%
15:00 +34°C° 0 mm 5 m/s 761 mmHg 22%
16:00 +32°C° 0 mm 4 m/s 761 mmHg 33%
17:00 +28°C° 0 mm 4 m/s 761 mmHg 43%
18:00 +26°C° 0 mm 4 m/s 761 mmHg 53%
19:00 +25°C° 0 mm 3 m/s 761 mmHg 57%
20:00 +24°C° 0 mm 3 m/s 761 mmHg 62%
21:00 +24°C° 0 mm 2 m/s 762 mmHg 66%
22:00 +23°C° 0 mm 2 m/s 761 mmHg 69%
23:00 +22°C° 0 mm 1 m/s 761 mmHg 72%
Voir plus

Nous avons besoin de votre consentement

Meteoprog et ses fournisseurs de services peuvent stocker et accéder à des données personnelles telles que des cookies, des identifiants d'appareils ou d'autres technologies similaires sur votre appareil et traiter ces données pour personnaliser le contenu et les publicités, ainsi que pour fournir des fonctionnalités de médias sociaux et analyser le trafic.

  • Stocker et/ou accéder à des informations sur votre appareil

    Des cookies, des identifiants d'appareils ou d'autres informations peuvent être stockés ou accessibles sur votre appareil aux fins indiquées ci-dessus.

  • Annonces et contenus personnalisés, mesure des annonces et des contenus, connaissance de l'audience et développement de produits

    Les annonces et le contenu peuvent être personnalisés en fonction d'un profil. D'autres données peuvent être ajoutées pour mieux personnaliser les annonces et le contenu. Les performances des publicités et du contenu peuvent être mesurées. Il est possible d'obtenir des informations sur le public qui a vu les publicités et le contenu. Ces données peuvent être utilisées pour développer ou améliorer l'expérience de l'utilisateur, les systèmes et les logiciels.

En cliquant sur "J'accepte", vous autorisez l'utilisation de cookies, des identifiants d'appareils, des balises web ou d'autres technologies similaires. Vos paramètres peuvent être modifiés dans le navigateur de votre appareil.

Dans certains cas, des intérêts légitimes peuvent être invoqués plutôt qu'un consentement. Vous pouvez en savoir plus à ce sujet dans notre Politique de confidentialité et de cookies.